Glasgow, MT

2:18 PM MDT on April 20, 2018 (GMT -0600)
Wokal-Glasgow International

Weather History for KGGW - April, 2013

Change the Weather History Date:

Sunday, April 21, 2013

  Actual Average Record
Temperature  
Mean Temperature 32 °F 47 °F  
Max Temperature 41 °F 60 °F 89 °F (1942)
Min Temperature 22 °F 34 °F 12 °F (2008)
Degree Days  
Heating Degree Days 33 18  
Month to date heating degree days 628 455  
Since 1 July heating degree days 8091 7859  
Cooling Degree Days 0 0  
Month to date cooling degree days 0 0  
Year to date cooling degree days 0 0  
Moisture  
Dew Point 23 °F    
Average Humidity 67    
Maximum Humidity 96    
Minimum Humidity 37    
Precipitation  
Precipitation T in 0.03 in 0.43 in (1940)
Month to date precipitation 1.12 0.52  
Year to date precipitation 2.78 1.57  
Snow  
Snow T in 0.00 in 1.00 in (1973)
Month to date snowfall 11.7 1.5  
Since 1 July snowfall 62.3 33.2  
Snow Depth 0.00 in    
Sea Level Pressure  
Sea Level Pressure 30.18 in    
Wind  
Wind Speed 14 mph (NNW)    
Max Wind Speed 25 mph    
Max Gust Speed 32 mph    
Visibility 10 miles    
Events Snow    
T = Trace of Precipitation, MM = Missing Value Source: NWS Daily Summary

Daily Weather History Graph

Daily Weather History Graph

Search for Another Location

Airport or City:

Astronomy

Apr. 21, 2013 Rise Set
Actual Time 6:04 AM MDT 8:06 PM MDT
Civil Twilight 5:31 AM MDT 8:39 PM MDT
Nautical Twilight 4:49 AM MDT 9:21 PM MDT
Astronomical Twilight 4:03 AM MDT 10:08 PM MDT
Moon 3:36 PM MDT (4/21) 3:48 AM MDT (4/21)
Length of Visible Light 15h 08m
Length of Day
14h 01m
Waxing Gibbous, 80% of the Moon is Illuminated
Apr 21
Waxing Gibbous
Apr 25
Full
May 2
Last Quarter
May 9
New
May 17
First Quarter

Hourly Weather History & Observations

Time (MDT) Temp. Windchill Dew Point Humidity Pressure Visibility Wind Dir Wind Speed Gust Speed Precip Events Conditions
12:14 AM 37.4 °F 27.2 °F 33.8 °F 87% 29.93 in 10.0 mi NNW 19.6 mph - N/A   Overcast
12:48 AM 35.6 °F 24.5 °F 30.2 °F 81% 29.95 in 9.0 mi NNW 20.7 mph 27.6 mph 0.00 in Snow Light Snow
12:53 AM 35.1 °F 24.5 °F 32.0 °F 89% 30.01 in 8.0 mi NNW 18.4 mph 27.6 mph 0.00 in Snow Light Snow
1:53 AM 34.0 °F 26.6 °F 32.0 °F 92% 30.04 in 7.0 mi NW 9.2 mph - 0.00 in Snow Light Snow
2:24 AM 33.8 °F 25.3 °F 32.0 °F 93% 29.98 in 10.0 mi NW 11.5 mph - N/A   Overcast
2:42 AM 33.8 °F 25.3 °F 32.0 °F 93% 29.99 in 10.0 mi WNW 11.5 mph - N/A   Overcast
2:53 AM 34.0 °F 25.5 °F 32.0 °F 92% 30.05 in 10.0 mi WNW 11.5 mph - N/A   Overcast
3:53 AM 33.1 °F 22.2 °F 27.0 °F 78% 30.06 in 10.0 mi NW 17.3 mph - N/A   Overcast
4:45 AM 33.8 °F 24.8 °F 26.6 °F 75% 30.04 in 10.0 mi NW 12.7 mph - N/A   Overcast
4:53 AM 33.1 °F 21.9 °F 26.1 °F 75% 30.10 in 10.0 mi NW 18.4 mph - N/A   Overcast
5:44 AM 32.0 °F 22.1 °F 24.8 °F 75% 30.06 in 10.0 mi NW 13.8 mph 23.0 mph N/A   Overcast
5:53 AM 32.0 °F 22.1 °F 24.1 °F 73% 30.12 in 10.0 mi NW 13.8 mph - N/A   Overcast
6:53 AM 32.0 °F 21.2 °F 25.0 °F 75% 30.14 in 10.0 mi WNW 16.1 mph - N/A   Overcast
7:12 AM 32.0 °F 20.8 °F 24.8 °F 75% 30.09 in 10.0 mi WNW 17.3 mph - N/A   Overcast
7:53 AM 32.0 °F 19.5 °F 24.1 °F 73% 30.17 in 10.0 mi NNW 21.9 mph 25.3 mph N/A   Overcast
8:53 AM 32.0 °F 18.6 °F 23.0 °F 69% 30.19 in 10.0 mi NNW 25.3 mph 32.2 mph N/A   Overcast
9:53 AM 33.1 °F 21.5 °F 23.0 °F 66% 30.21 in 10.0 mi NW 19.6 mph - N/A   Overcast
10:31 AM 33.8 °F 23.2 °F 21.2 °F 60% 30.16 in 10.0 mi NW 17.3 mph - N/A   Overcast
10:45 AM 32.0 °F 19.8 °F 23.0 °F 69% 30.16 in 10.0 mi NW 20.7 mph - N/A   Overcast
10:53 AM 30.9 °F 18.7 °F 21.9 °F 69% 30.25 in 10.0 mi WNW 19.6 mph - N/A   Overcast
11:53 AM 34.0 °F 23.4 °F 21.9 °F 61% 30.25 in 10.0 mi NW 17.3 mph - N/A   Overcast
12:25 PM 35.6 °F 25.9 °F 21.2 °F 56% 30.17 in 10.0 mi NNW 16.1 mph 24.2 mph N/A   Overcast
12:53 PM 35.1 °F 24.8 °F 21.0 °F 57% 30.25 in 10.0 mi WNW 17.3 mph 21.9 mph N/A   Overcast
1:53 PM 37.9 °F 28.9 °F 19.0 °F 47% 30.23 in 10.0 mi NW 16.1 mph 20.7 mph N/A   Scattered Clouds
2:53 PM 39.0 °F 31.4 °F 18.0 °F 43% 30.24 in 10.0 mi NW 12.7 mph 20.7 mph N/A   Mostly Cloudy
3:53 PM 39.9 °F 33.4 °F 16.0 °F 38% 30.24 in 10.0 mi NW 10.4 mph 19.6 mph N/A   Mostly Cloudy
4:53 PM 37.9 °F 31.5 °F 16.0 °F 41% 30.26 in 10.0 mi North 9.2 mph 21.9 mph N/A   Overcast
5:53 PM 37.9 °F 30.5 °F 16.0 °F 41% 30.27 in 10.0 mi North 11.5 mph 24.2 mph N/A   Mostly Cloudy
6:53 PM 35.1 °F 25.5 °F 16.0 °F 46% 30.28 in 10.0 mi North 15.0 mph - N/A   Partly Cloudy
7:53 PM 33.1 °F 24.9 °F 17.1 °F 52% 30.31 in 10.0 mi North 10.4 mph - N/A   Clear
8:53 PM 30.0 °F 21.7 °F 18.0 °F 61% 30.34 in 10.0 mi North 9.2 mph - N/A   Clear
9:53 PM 27.0 °F 19.5 °F 18.0 °F 69% 30.38 in 10.0 mi NNE 6.9 mph - N/A   Clear
10:53 PM 27.0 °F 17.3 °F 18.0 °F 69% 30.39 in 10.0 mi NNE 10.4 mph - N/A   Clear
11:53 PM 25.0 °F 16.3 °F 18.0 °F 75% 30.41 in 10.0 mi NNE 8.1 mph - N/A   Mostly Cloudy